Location: Kellogg
(38.0159°N, 90.0546°W)
Time: 08:02:57
(UTC+00:00)

Vanguard 1 Rocket - Pass Details

Date: 20 September 2024
Orbit: 650 x 4218 km, 34.3° (Epoch: 05 October)

Event Time Altitude Azimuth Distance (km) Brightness Sun altitude
Rises 08:58:08 0° 247° (WSW) 4,788 - -32.5°
Reaches altitude 10° 09:00:39 10° 245° (WSW) 4,128 - -32.0°
Exits shadow 09:07:36 49° 229° (SW) 2,892 9.4 -30.9°
Maximum altitude 09:12:39 72° 163° (SSE) 2,886 9.7 -30.0°
Drops below altitude 10° 09:35:26 10° 85° (E) 7,211 12.9 -25.9°
Sets 09:41:38 0° 85° (E) 8,419 13.5 -24.8°
